Regional Weather Roundup
Issued by NWS

Home | Current Version | Previous Version | Text Only | Print | Product List | Glossary Off
Versions: 1 2 3 4 5 6 7 8 9 10 11 12 13 14 15 16 17 18 19 20 21 22 23 24 25 26 27 28 29 30 31 32 33 34 35 36 37 38 39 40 41 42 43 44 45 46 47 48 49 50

000
ASUS43 KMKX 051500
RWRWI

WISCONSIN REGIONAL WEATHER ROUNDUP
NATIONAL WEATHER SERVICE MILWAUKEE/SULLIVAN WI
900 AM CST MON DEC 05 2016

NOTE: "FAIR" INDICATES FEW OR NO CLOUDS BELOW 12,000 FEET WITH NO
SIGNIFICANT WEATHER AND/OR OBSTRUCTIONS TO VISIBILITY.

WIZ001-002-006>008-014>016-023>028-051600-
NORTHWEST WISCONSIN

CITY           SKY/WX    TMP DP  RH WIND       PRES   REMARKS
SUPERIOR ARPT  CLOUDY    33  30  89 CALM      29.80R
ASHLAND        CLOUDY    33  28  81 SW7       29.82R WCI  27
HAYWARD        MOSUNNY   28  27  96 CALM      29.80S FOG
SIREN          PTSUNNY   27  26  98 SE6       29.79R FOG     WCI  20
CUMBERLAND     FOG       27  23  86 S6        29.81R VSB<1/4 WCI  20
RICE LAKE      FOG       27  26  97 SE8       29.84R VSB<1/4 WCI  19
CHETEK         FOG       26  26  99 SE7       29.83R VSB<1/4 WCI  18
LADYSMITH      FOG       30  29  97 SE5       29.83F VSB 1/4 WCI  25
EAU CLAIRE     NOT AVBL
MENOMONIE      FOG       27  27  99 SE5       29.84R VSB 1/4 WCI  22
NEW RICHMOND   SUNNY     27  27 100 SE6       29.79S WCI  20
OSCEOLA        SUNNY     28  28 100 E7        29.82R WCI  21
$$

WIZ003>005-009-010-017-018-051600-
NORTH CENTRAL WISCONSIN

CITY           SKY/WX    TMP DP  RH WIND       PRES   REMARKS
MANITOWISH WTR CLOUDY    31  30  99 SW5       29.80R WCI  26
ARBOR VITAE    CLOUDY    32  29  89 W6        29.81S WCI  26
WOODRUFF       CLOUDY    32  29  89 W6        29.81S WCI  26
RHINELANDER    MOSUNNY   32  28  85 W9        29.82S WCI  24
EAGLE RIVER    CLOUDY    31  28  88 W9        29.81R WCI  23
LAND O LAKES   CLOUDY    32  29  88 W5        29.81R WCI  27
PHILLIPS       CLOUDY    29  28  96 SW5       29.81S WCI  24
TOMAHAWK       CLOUDY    31  28  90 CALM      29.84R
MEDFORD        FOG       30  29  99 S3        29.83S VSB 1/4
MERRILL        CLOUDY    31  31  99 SW6       29.86S WCI  25
$$

WIZ029-030-035-036-043>047-051600-
CENTRAL WISCONSIN

CITY           SKY/WX    TMP DP  RH WIND       PRES   REMARKS
WAUSAU         PTSUNNY   32  29  88 W5        29.85S WCI  27
MOSINEE        PTSUNNY   30  30 100 S3        29.87S
MARSHFIELD     CLOUDY    31  30  96 S8        29.85R FOG     WCI  23
STEVENS POINT  CLOUDY    31  30  96 SW7       29.88R WCI  24
WAUPACA        CLOUDY    35  32  88 CALM      29.91R
WAUTOMA        CLOUDY    33  31  92 SW7       29.92R WCI  27
WISC RAPIDS    CLOUDY    33  32  96 SW8       29.90R WCI  26
CAMP DOUGLAS   NOT AVBL
$$

WIZ011>013-019>022-031-037>040-048>050-051600-
NORTHEAST WISCONSIN

CITY           SKY/WX    TMP DP  RH WIND       PRES   REMARKS
ANTIGO         CLOUDY    30  28  92 W7        29.85R WCI  23
SHAWANO        CLOUDY    35  32  88 CALM      29.89S
OCONTO         SUNNY     33  31  91 W7        29.90R WCI  27
STURGEON BAY   MOSUNNY   37  31  78 SW8       29.91R WCI  31
GREEN BAY      CLOUDY    34  32  92 SW7       29.91R WCI  28
MANITOWOC      NOT AVBL
APPLETON       PTSUNNY   34  32  93 SW8       29.90R WCI  27
CLINTONVILLE   CLOUDY    34  32  93 SW5       29.90R WCI  30
OSHKOSH        PTSUNNY   33  28  81 SW9       29.92R WCI  25
$$

WIZ032>034-041-042-053>061-051600-
SOUTHWEST WISCONSIN

CITY           SKY/WX    TMP DP  RH WIND       PRES   REMARKS
LA CROSSE      CLOUDY    35  32  88 S12       29.88S FOG     WCI  27
SPARTA         CLOUDY    33  32  96 CALM      29.89S FOG
VIROQUA        CLOUDY    32  32 100 S8        29.88S VSB<1/4 WCI  25
BOSCOBEL       CLOUDY    34  32  92 S6        29.93S FOG     WCI  29
PRAIRIE DU CHI CLOUDY    33  32  95 CALM      29.91F FOG
PLATTEVILLE    CLOUDY    32  32 100 S9        29.93S VSB<1/4 WCI  24
$$

WIZ056-057-062-063-064-067-068-051600-
SOUTH CENTRAL WISCONSIN

CITY           SKY/WX    TMP DP  RH WIND       PRES   REMARKS
REEDSBURG      CLOUDY    32  32 100 S6        29.92R FOG     WCI  26
BARABOO/DELLS  CLOUDY    32  32  98 S8        29.91S FOG     WCI  25
LONE ROCK      CLOUDY    33  31  92 S7        29.94S FOG     WCI  27
MINERAL POINT  FOG       32  32 100 S6        29.92S VSB<1/4 WCI  26
MADISON        CLOUDY    33  32  96 S6        29.93S FOG     WCI  28
MIDDLETON      CLOUDY    34  34 100 SW8       29.93F WCI  27
WATERTOWN      CLOUDY    32  32 100 SW8       29.95R FOG     WCI  25
MONROE         FOG       32  32 100 S8        29.94S VSB<1/4 WCI  25
JANESVILLE     CLOUDY    34  34 100 S7        29.97R FOG     WCI  28
$$

WIZ051-052-058>065-066-070>072-051600-
SOUTHEAST WISCONSIN

CITY           SKY/WX    TMP DP  RH WIND       PRES   REMARKS
MILWAUKEE      CLOUDY    34  31  88 SW10      29.98R WCI  26
WAUKESHA       CLOUDY    30  30 100 SW7       29.97S FOG     WCI  23
MILWAUKEE/TIMM CLOUDY    34  28  80 SW7       29.97F WCI  28
RACINE         CLOUDY    33  30  88 SW6       30.01R WCI  28
BURLINGTON     CLOUDY    32  32  99 CALM      29.98R FOG
KENOSHA        CLOUDY    32  31  96 SW9       30.00R FOG     WCI  24
FOND DU LAC    CLOUDY    34  29  82 SW12      29.93R WCI  25
SHEBOYGAN      CLOUDY    32  29  88 SW7       29.94R WCI  26
WEST BEND      CLOUDY    32  32 100 CALM      29.94F
JUNEAU         CLOUDY    32  31  96 SW8       29.94F FOG     WCI  25
$$

LSZ147-162-051600-
LAKE SUPERIOR

STATION/POSITION TIME  TEMP    WIND        PRES    WAVE
                       AIR SEA DIR/SP/G            HT/PER
                 (UTC) (F)     (DEG/KT/KT) (MB)    (FT/S)
DEVILS ISLAND    1400   36     250/ 16/ 18 1009.3R
PORT WING        1440   35     210/  5/  8 1009.5R
SAXON HARBOR     1440   36     210/  5/  9 1009.8R
$$

LMZ867-665-643>646-051600-
LAKE MICHIGAN

STATION/POSITION TIME  TEMP    WIND        PRES    WAVE
                       AIR SEA DIR/SP/G            HT/PER
                 (UTC) (F)     (DEG/KT/KT) (MB)    (FT/S)
CHAMBERS ISLAND  1440   37     220/  8/ 15 1011.9R
NORTHPORT PIER   1440   39     250/ 10/ 17 1011.9R
SISTER BAY       1408   41     300/ 21/ 24   N/A
ALGOMA LAKESHORE 1351          260/  8/ 12   N/A
KEWAUNEE LAKESHO 1430   35     240/  2/  5 1012.5F
SHEBOYGAN LAKESH 1400   35     210/  7/  8 1014.3R
PORT WASHINGTON  1440   35     230/  4/  6 1015.6S
MILWAUKEE LAKESH 1430   34     230/  9/ 10   N/A
KENOSHA   LAKESH 1400   33     200/  6/  9 1015.6
$$

TC  - TEMPERATURE IN CELSIUS
VSB - VISIBILITY IN STATUTE MILES
WCI - WIND CHILL INDEX
HX  - HEAT INDEX





USA.gov is the U.S. government's official web portal to all federal, state and local government web resources and services.